This is the latest recevied weather packets stored in our database for station/object SR1WXW. If no packets are shown the sender has not sent any weather packets the latest 10 day(s).
| Time | Temp. | Humidity | Pressure | Rain* | Wind** | Luminosity | Snow |
|---|---|---|---|---|---|---|---|
| 1777879086 | 21.11° C | 60% | 1005.6 hPa | 0 mm | - | - | - |
| 1777878786 | 19.44° C | 62% | 1005.6 hPa | 0 mm | - | - | - |
| 1777878486 | 18.89° C | 62% | 1005.7 hPa | 0 mm | - | - | - |
| 1777878186 | 18.89° C | 61% | 1005.7 hPa | 0 mm | - | - | - |
| 1777877886 | 18.89° C | 61% | 1005.6 hPa | 0 mm | - | - | - |
| 1777877586 | 18.89° C | 62% | 1005.7 hPa | 0 mm | - | - | - |
| 1777877286 | 18.33° C | 62% | 1005.6 hPa | 0 mm | - | - | - |
| 1777876986 | 18.33° C | 63% | 1005.7 hPa | 0 mm | - | - | - |
| 1777876686 | 17.78° C | 63% | 1005.6 hPa | 0 mm | - | - | - |
| 1777876386 | 17.78° C | 64% | 1005.5 hPa | 0 mm | - | - | - |
| 1777876086 | 17.78° C | 64% | 1005.6 hPa | 0 mm | - | - | - |
| 1777875786 | 17.22° C | 65% | 1005.4 hPa | 0 mm | - | - | - |
| 1777875486 | 17.22° C | 65% | 1005.5 hPa | 0 mm | - | - | - |
| 1777875186 | 16.67° C | 65% | 1005.4 hPa | 0 mm | - | - | - |
| 1777874886 | 16.67° C | 65% | 1005.2 hPa | 0 mm | - | - | - |
| 1777874586 | 16.67° C | 65% | 1005.3 hPa | 0 mm | - | - | - |
| 1777874286 | 16.67° C | 66% | 1005.4 hPa | 0 mm | - | - | - |
| 1777873986 | 16.11° C | 66% | 1005.5 hPa | 0 mm | - | - | - |
| 1777873686 | 16.11° C | 66% | 1005.4 hPa | 0 mm | - | - | - |
| 1777873386 | 16.11° C | 65% | 1005.3 hPa | 0 mm | - | - | - |
| 1777873086 | 16.11° C | 66% | 1005.4 hPa | 0 mm | - | - | - |
| 1777872786 | 16.11° C | 66% | 1005.4 hPa | 0 mm | - | - | - |
| 1777872486 | 16.11° C | 66% | 1005.3 hPa | 0 mm | - | - | - |
| 1777872186 | 16.11° C | 67% | 1005.3 hPa | 0 mm | - | - | - |
| 1777871886 | 15.56° C | 67% | 1005.2 hPa | 0 mm | - | - | - |
* Rain latest hour (hover to see other rain measurements)
** Current wind speed in m/s (hover to see current wind gust speed)